EW9136 Weather Reports


Display with metric or nautical units.
time (UTC)temp
F
wind
direction
speed
MPH
gust
MPH
rain 1hr
in
rain 24hr
in
rain mn
in
humidity
%
barometer
mb
20260507170048 52 120 9.0 15.0 0.00 0.00 0.00 82 1015.0
20260507164550 52 167 10.0 16.0 0.00 0.00 0.00 82 1015.2
20260507163050 52 114 9.0 15.0 0.00 0.00 0.00 82 1015.2
20260507161547 52 138 7.0 14.0 0.00 0.00 0.00 83 1015.2
20260507160051 51 149 5.0 13.0 0.00 0.00 0.00 82 1015.3
20260507154544 51 113 8.0 15.0 0.00 0.00 0.00 82 1015.3
20260507153046 51 143 9.0 16.0 0.00 0.00 0.00 81 1015.2
20260507151643 52 121 9.0 18.0 0.00 0.00 0.00 81 1015.3
20260507150041 53 139 7.0 16.0 0.00 0.00 0.00 81 1015.3
20260507144540 53 176 8.0 14.0 0.00 0.00 0.00 79 1015.3
20260507143043 54 170 7.0 18.0 0.00 0.00 0.00 79 1015.4
20260507141543 54 99 9.0 14.0 0.00 0.00 0.00 80 1015.5
20260507140038 54 131 5.0 17.0 0.00 0.00 0.00 79 1015.6
20260507134536 54 142 6.0 14.0 0.00 0.00 0.00 78 1015.6
20260507133036 54 138 6.0 12.0 0.00 0.00 0.00 78 1015.7
20260507131537 55 151 6.0 11.0 0.00 0.00 0.00 75 1015.7
20260507130040 56 192 7.0 12.0 0.00 0.00 0.00 74 1015.6
20260507124547 57 139 8.0 12.0 0.00 0.00 0.00 65 1015.6
20260507123031 56 168 7.0 16.0 0.00 0.00 0.00 67 1015.7
20260507121528 56 158 7.0 13.0 0.00 0.00 0.00 67 1015.8
20260507120027 55 159 7.0 12.0 0.00 0.00 0.00 66 1015.9
20260507114529 55 177 5.0 11.0 0.00 0.00 0.00 68 1016.0
20260507113025 55 168 7.0 14.0 0.00 0.00 0.00 67 1016.0
20260507111526 56 162 8.0 15.0 0.00 0.00 0.00 67 1016.1
20260507110028 56 144 8.0 14.0 0.00 0.00 0.00 67 1016.2
20260507104519 55 180 8.0 13.0 0.00 0.00 0.00 66 1016.2
20260507103017 55 187 9.0 14.0 0.00 0.00 0.00 65 1016.3
20260507101514 54 178 6.0 13.0 0.00 0.00 0.00 66 1016.4
20260507100009 53 170 8.0 15.0 0.00 0.00 0.00 69 1016.4
20260507094505 53 195 5.0 11.0 0.00 0.00 0.00 70 1016.4
20260507093003 52 204 6.0 13.0 0.00 0.00 0.00 74 1016.3
20260507091602 51 115 4.0 12.0 0.00 0.00 0.00 73 1016.2
20260507090010 51 163 6.0 10.0 0.00 0.00 0.00 75 1016.3
20260507084510 50 131 7.0 11.0 0.00 0.00 0.00 77 1016.4
20260507083008 49 158 7.0 11.0 0.00 0.00 0.00 79 1016.5
20260507081505 49 198 7.0 11.0 0.00 0.00 0.00 82 1016.5
20260507080103 48 157 7.0 13.0 0.00 0.02 0.00 87 1016.6
20260507074607 46 173 3.0 8.0 0.00 0.02 0.00 95 1016.5
20260507073051 44 143 5.0 10.0 0.00 0.02 0.00 97 1016.4
20260507071551 40 88 0.0 3.0 0.00 0.02 0.00 96 1016.5
20260507070057 39 92 1.0 2.0 0.00 0.02 0.00 96 1016.6
20260507064538 37 99 0.0 0.0 0.00 0.02 0.00 96 1016.5
20260507063051 36 99 0.0 2.0 0.00 0.02 0.00 95 1016.4
20260507061535 35 99 0.0 0.0 0.00 0.02 0.00 95 1016.3
20260507060043 34 99 0.0 0.0 0.00 0.02 0.00 95 1016.3
20260507054530 33 99 0.0 0.0 0.00 0.02 0.00 95 1016.2
20260507053030 33 99 0.0 0.0 0.00 0.02 0.00 95 1016.1
20260507051529 31 100 0.0 0.0 0.00 0.02 0.00 95 1016.1
20260507050034 31 100 0.0 0.0 0.00 0.03 0.00 94 1016.2
20260507044525 30 99 0.0 0.0 0.00 0.03 0.00 94 1016.0
20260507043024 31 99 0.0 0.0 0.00 0.03 0.00 94 1016.0
20260507041524 30 99 0.0 3.0 0.00 0.03 0.00 94 1016.0
20260507040025 31 99 0.0 1.0 0.00 0.03 0.00 94 1016.0
20260507034531 31 99 0.0 2.0 0.00 0.03 0.00 94 1016.0
20260507033020 31 99 0.0 0.0 0.00 0.03 0.00 94 1016.1
20260507031518 31 99 0.0 0.0 0.00 0.03 0.00 94 1016.2
20260507030017 31 99 0.0 0.0 0.00 0.03 0.00 94 1016.2
20260507024522 31 99 0.0 0.0 0.00 0.03 0.00 94 1016.1
20260507023022 31 99 0.0 0.0 0.00 0.03 0.00 94 1016.2
20260507021513 32 99 0.0 2.0 0.00 0.03 0.00 93 1016.2
20260507020024 32 99 0.0 0.0 0.00 0.04 0.00 94 1016.1
20260507014510 32 99 0.0 0.0 0.00 0.04 0.00 93 1016.1
20260507013018 32 99 0.0 0.0 0.00 0.04 0.00 93 1016.2
20260507011509 32 99 0.0 0.0 0.00 0.04 0.00 93 1016.2
20260507010006 33 99 0.0 0.0 0.00 0.04 0.00 93 1016.2
20260507004504 33 99 0.0 0.0 0.00 0.04 0.00 93 1016.1
20260507003001 34 99 0.0 0.0 0.00 0.04 0.00 93 1016.2
20260507001501 34 99 0.0 0.0 0.00 0.04 0.00 93 1016.1
20260507000059 34 99 0.0 2.0 0.00 0.04 0.04 93 1016.2
20260506234559 34 99 0.0 2.0 0.00 0.04 0.04 93 1016.2
20260506233107 34 99 1.0 2.0 0.00 0.04 0.04 92 1016.4
20260506231605 33 99 0.0 2.0 0.00 0.04 0.04 92 1016.4
20260506224553 34 99 0.0 2.0 0.00 0.04 0.04 91 1016.3
20260506223051 34 99 0.0 2.0 0.00 0.04 0.04 90 1016.3
20260506221555 35 99 1.0 3.0 0.00 0.04 0.04 90 1016.2
20260506220048 36 119 0.0 4.0 0.00 0.04 0.04 90 1016.1
20260506214550 36 117 2.0 6.0 0.00 0.04 0.04 90 1016.1
20260506213047 36 115 2.0 6.0 0.00 0.04 0.04 90 1016.1
20260506211546 36 113 3.0 4.0 0.00 0.04 0.04 89 1016.1
20260506210045 37 112 2.0 4.0 0.00 0.04 0.04 88 1016.2
20260506204545 38 111 1.0 3.0 0.00 0.04 0.04 87 1016.1
20260506203044 40 111 0.0 4.0 0.00 0.04 0.04 86 1016.1
20260506201543 40 113 2.0 7.0 0.00 0.04 0.04 86 1015.9
20260506200045 41 113 2.0 7.0 0.00 0.04 0.04 86 1015.8
20260506194547 41 102 3.0 6.0 0.00 0.04 0.04 85 1015.9
20260506193042 42 76 2.0 4.0 0.00 0.04 0.04 84 1015.8
20260506191540 43 73 0.0 2.0 0.00 0.04 0.04 82 1015.9
20260506190039 44 73 0.0 2.0 0.00 0.04 0.04 81 1015.8
20260506184539 45 72 2.0 9.0 0.00 0.04 0.04 79 1015.7
20260506183039 46 57 5.0 10.0 0.00 0.04 0.04 78 1015.6
20260506181538 46 69 3.0 7.0 0.00 0.04 0.04 78 1015.6
20260506180041 46 56 3.0 6.0 0.00 0.04 0.04 78 1015.6
20260506174536 46 63 5.0 9.0 0.00 0.04 0.04 76 1015.5
20260506173043 46 61 5.0 10.0 0.00 0.04 0.04 75 1015.5
20260506171540 47 59 5.0 12.0 0.00 0.04 0.04 74 1015.6